Flag for Venezuela Weather past 2 weeks in Barquisimeto, Venezuela

Now
86 °F

Scattered clouds.


Feels Like: 88 °F
Forecast: 65 / 93 °F
Wind: 17 mph from Southeast

Location: Barquisimeto Airport

Current Time: Oct 21, 2014 at 3:02:11 PM

Latest Report: Oct 21, 2014 at 1:30 PM


Visibility: N/A

Pressure: 29.98 "Hg

Humidity: 52%

Dew point: 66 °F

Location of BarquisimetoLocation

Historic Weather in Barquisimeto — Graph

°F

Barquisimeto temperature yesterday

Maximum temperature yesterday: 86 °F (at 1:30 PM)
Minimum temperature yesterday: 68 °F (at 11:30 AM)
Average temperature yesterday: 75 °F

Past Weeks' High & Low Weather Summary

 TemperatureHumidityPressure
High91 °F (Oct 16, 12:30 PM)100% (Oct 9, 5:30 AM)30.07 "Hg (Oct 9, 5:30 AM)
Low68 °F (Oct 14, 6:30 AM)41% (Oct 16, 1:30 PM)29.89 "Hg (Oct 8, 2:30 PM)
Average77 °F76%29.99 "Hg
* Reported Oct 6 1:30 PM — Oct 21 1:30 PM, Barquisimeto, Weather by CustomWeather, © 2014

Note: Actual official high and low records may vary slightly from our data, if they occured in-between our weather recording intervals... More about our weather records

Advertising

Barquisimeto weather history for previous 24 hours

 ConditionsComfort  
Time TempWeatherWind HumidityBarometerVisibility
1:30 PM
Oct 21
86 °FScattered clouds.17 mph52%29.98 "HgN/A
12:30 PM84 °FScattered clouds.15 mph55%30.01 "HgN/A
11:30 AM84 °FBroken clouds.15 mph58%30.01 "HgN/A
10:30 AM81 °FBroken clouds.13 mph66%30.04 "HgN/A
9:30 AM79 °FBroken clouds.8 mph74%30.07 "HgN/A
8:30 AM77 °FPartly sunny.6 mph74%30.04 "HgN/A
7:30 AM73 °FPartly sunny.5 mph89%30.04 "HgN/A
6:30 AM70 °FPartly sunny.3 mph88%30.04 "HgN/A
5:30 AM72 °FPartly sunny.5 mph83%29.98 "HgN/A
4:30 AM72 °FPassing clouds.6 mph88%29.98 "HgN/A
1:30 AM72 °FPassing clouds.6 mph88%30.04 "HgN/A
10:30 PM
Oct 20
72 °FPassing clouds.6 mph88%30.04 "HgN/A
9:30 PM72 °FPassing clouds.6 mph88%29.98 "HgN/A
8:30 PM72 °FPartly cloudy.6 mph88%29.98 "HgN/A
7:30 PM72 °FPassing clouds.8 mph94%29.95 "HgN/A
6:30 PM73 °FPartly cloudy.10 mph78%29.95 "HgN/A
5:30 PM72 °FScattered showers. Passing clouds.10 mph94%29.92 "HgN/A
4:30 PM75 °FThunderstorms. Partly sunny.8 mph89%29.89 "HgN/A
3:30 PM81 °FScattered clouds.8 mph70%29.92 "HgN/A
Weather by CustomWeather, © 2014

See weather overviewHow to use our weather pages